Weather History for Phillips, WI

Change the Weather History Date:

Monday, September 15, 2014

  Actual Average Record
Temperature  
Mean Temperature 46 °F -  
Max Temperature 58 °F 67 °F 77 °F (1998)
Min Temperature 36 °F 47 °F 24 °F (2007)
Degree Days  
Heating Degree Days 18    
Moisture  
Dew Point 39 °F    
Average Humidity 80    
Maximum Humidity 100    
Minimum Humidity 43    
Precipitation  
Precipitation 0.00 in - - ()
Sea Level Pressure  
Sea Level Pressure 30.14 in    
Wind  
Wind Speed 2 mph (NW)    
Max Wind Speed 10 mph    
Max Gust Speed 21 mph    
Visibility 10 miles    
Events Fog    
Averages and records for this station are not official NWS values.
T = Trace of Precipitation, MM = Missing Value Source: NWS Daily Summary

Daily Weather History Graph

Daily Weather History Graph

Search for Another Location

Airport:

Trip Planner

Search our weather history database for the weather conditions in past years. The results will help you decide how hot, cold, wet, or windy it might be!

Date:

Astronomy

Sep. 15, 2014 Rise Set
Actual Time 6:39 AM CDT 7:12 PM CDT
Civil Twilight 6:10 AM CDT 7:42 PM CDT
Nautical Twilight 5:34 AM CDT 8:17 PM CDT
Astronomical Twilight 4:57 AM CDT 8:54 PM CDT
Moon 11:38 PM CDT (9/15) 1:58 PM CDT (9/15)
Length of Visible Light 13h 32m
Length of Day
12h 32m
Waning Gibbous, 54% of the Moon is Illuminated
Sep 15
Waning Gibbous
Sep 15
Last Quarter
Sep 24
New
Oct 1
First Quarter
Oct 8
Full

Hourly Weather History & Observations

Time (CDT) Temp. Windchill Dew Point Humidity Pressure Visibility Wind Dir Wind Speed Gust Speed Precip Events Conditions
12:15 AM 39.7 °F - 39.7 °F 100% 30.12 in 5.0 mi Calm Calm - N/A   Clear
12:35 AM 39.9 °F - 39.6 °F 99% 30.12 in 7.0 mi Calm Calm - N/A   Clear
12:55 AM 39.2 °F - 39.0 °F 99% 30.12 in 10.0 mi Calm Calm - N/A   Clear
1:15 AM 39.4 °F - 39.4 °F 100% 30.12 in 7.0 mi Calm Calm - N/A   Clear
1:35 AM 38.7 °F - 37.9 °F 97% 30.13 in 10.0 mi Calm Calm - N/A   Clear
1:55 AM 39.7 °F - 39.4 °F 99% 30.13 in 10.0 mi Calm Calm - N/A   Clear
2:15 AM 39.6 °F - 39.0 °F 98% 30.13 in 10.0 mi Calm Calm - N/A   Clear
2:35 AM 40.6 °F - 40.3 °F 99% 30.12 in 10.0 mi Calm Calm - N/A   Clear
2:55 AM 38.8 °F - 38.7 °F 99% 30.11 in 10.0 mi Calm Calm - N/A   Clear
3:15 AM 39.0 °F - 38.7 °F 99% 30.11 in 10.0 mi Calm Calm - N/A   Clear
3:35 AM 39.2 °F - 38.8 °F 99% 30.11 in 10.0 mi Calm Calm - N/A   Clear
3:55 AM 38.5 °F - 38.5 °F 100% 30.11 in 7.0 mi Calm Calm - N/A   Clear
4:15 AM 38.5 °F - 38.5 °F 100% 30.11 in 3.0 mi Calm Calm - N/A   Scattered Clouds
4:35 AM 37.4 °F - 37.4 °F 100% 30.12 in 10.0 mi Calm Calm - N/A   Mostly Cloudy
4:55 AM 40.1 °F - 39.7 °F 99% 30.11 in 10.0 mi Calm Calm - N/A   Overcast
5:15 AM 39.7 °F - 39.2 °F 98% 30.12 in 10.0 mi Calm Calm - N/A   Overcast
5:35 AM 39.2 °F - 39.2 °F 100% 30.12 in 10.0 mi Calm Calm - N/A   Overcast
5:55 AM 39.6 °F - 39.6 °F 100% 30.12 in 10.0 mi Calm Calm - N/A   Overcast
6:15 AM 38.8 °F - 38.8 °F 100% 30.13 in 0.5 mi Calm Calm - N/A Fog Fog
6:35 AM 38.8 °F - 38.8 °F 100% 30.13 in 10.0 mi Calm Calm - N/A   Mostly Cloudy
6:55 AM 38.3 °F - 38.3 °F 100% 30.14 in 10.0 mi Calm Calm - N/A   Overcast
7:20 AM 40.8 °F - 40.5 °F 99% 30.14 in 10.0 mi Calm Calm - N/A   Overcast
7:30 AM 41.0 °F - 40.8 °F 99% 30.15 in 10.0 mi Calm Calm - N/A   Overcast
7:55 AM 41.9 °F - 41.5 °F 99% 30.14 in 10.0 mi Calm Calm - N/A   Overcast
8:15 AM 42.1 °F - 41.5 °F 98% 30.14 in 10.0 mi Calm Calm - N/A   Scattered Clouds
8:35 AM 44.2 °F 42.7 °F 43.2 °F 96% 30.15 in 10.0 mi WNW 3.5 mph - N/A   Clear
8:55 AM 46.4 °F - 44.1 °F 92% 30.15 in 10.0 mi Calm Calm - N/A   Clear
9:15 AM 46.4 °F 45.2 °F 43.5 °F 90% 30.16 in 10.0 mi NW 3.5 mph - N/A   Clear
9:35 AM 47.3 °F - 44.6 °F 90% 30.15 in 10.0 mi Calm Calm - N/A   Clear
9:55 AM 47.7 °F - 44.4 °F 89% 30.14 in 10.0 mi Calm Calm - N/A   Clear
10:15 AM 50.0 °F - 45.0 °F 83% 30.14 in 10.0 mi NW 6.9 mph - N/A   Clear
10:35 AM 52.2 °F - 45.0 °F 76% 30.15 in 10.0 mi NNW 3.5 mph - N/A   Scattered Clouds
10:55 AM 52.7 °F - 44.1 °F 72% 30.14 in 10.0 mi NW 8.1 mph - N/A   Mostly Cloudy
11:15 AM 52.9 °F - 43.3 °F 70% 30.14 in 10.0 mi NNW 4.6 mph - N/A   Mostly Cloudy
11:35 AM 52.9 °F - 42.6 °F 68% 30.14 in 10.0 mi NW 8.1 mph - N/A   Mostly Cloudy
11:55 AM 54.7 °F - 43.5 °F 66% 30.14 in 10.0 mi NNW 4.6 mph - N/A   Mostly Cloudy
12:15 PM 54.1 °F - 40.8 °F 61% 30.14 in 10.0 mi NW 6.9 mph - N/A   Mostly Cloudy
12:35 PM 55.0 °F - 39.7 °F 56% 30.14 in 10.0 mi NNW 9.2 mph - N/A   Scattered Clouds
12:55 PM 54.1 °F - 37.2 °F 53% 30.14 in 10.0 mi NNW 9.2 mph 20.7 mph N/A   Scattered Clouds
1:15 PM 54.0 °F - 36.7 °F 52% 30.14 in 10.0 mi NNW 9.2 mph 18.4 mph N/A   Scattered Clouds
1:38 PM 57.2 °F - 37.4 °F 48% 30.14 in 10.0 mi NNW 6.9 mph - N/A   Scattered Clouds
1:40 PM 57.9 °F - 38.1 °F 48% 30.14 in 10.0 mi NW 5.8 mph - N/A   Scattered Clouds
1:55 PM 57.4 °F - 36.7 °F 46% 30.14 in 10.0 mi NW 6.9 mph - N/A   Scattered Clouds
2:15 PM 56.5 °F - 36.9 °F 48% 30.14 in 10.0 mi NNW 8.1 mph - N/A   Mostly Cloudy
2:35 PM 57.2 °F - 36.3 °F 46% 30.14 in 10.0 mi NW 10.4 mph 17.3 mph N/A   Mostly Cloudy
2:55 PM 57.2 °F - 35.6 °F 44% 30.13 in 10.0 mi NW 5.8 mph - N/A   Scattered Clouds
3:15 PM 57.7 °F - 35.4 °F 43% 30.13 in 10.0 mi NW 5.8 mph - N/A   Scattered Clouds
3:35 PM 57.9 °F - 36.9 °F 45% 30.13 in 10.0 mi West 6.9 mph - N/A   Mostly Cloudy
4:00 PM 57.2 °F - 36.1 °F 45% 30.13 in 10.0 mi West 8.1 mph - N/A   Scattered Clouds
4:15 PM 56.7 °F - 36.5 °F 47% 30.13 in 10.0 mi NW 6.9 mph 16.1 mph N/A   Mostly Cloudy
4:35 PM 56.1 °F - 36.7 °F 48% 30.14 in 10.0 mi NNW 9.2 mph 16.1 mph N/A   Mostly Cloudy
4:38 PM 55.4 °F - 35.6 °F 47% 30.13 in 10.0 mi NNW 5.8 mph 16.1 mph N/A   Mostly Cloudy
4:55 PM 55.9 °F - 35.6 °F 46% 30.13 in 10.0 mi WNW 9.2 mph - N/A   Mostly Cloudy
5:15 PM 54.7 °F - 35.2 °F 48% 30.14 in 10.0 mi NW 6.9 mph - N/A   Scattered Clouds
5:35 PM 53.6 °F - 36.7 °F 53% 30.14 in 10.0 mi NW 8.1 mph - N/A   Scattered Clouds
5:55 PM 52.7 °F - 36.3 °F 54% 30.15 in 10.0 mi NNW 8.1 mph - N/A   Scattered Clouds
6:15 PM 51.6 °F - 36.3 °F 56% 30.16 in 10.0 mi NNW 5.8 mph - N/A   Scattered Clouds
6:35 PM 51.1 °F - 35.8 °F 56% 30.15 in 10.0 mi NNW 4.6 mph - N/A   Clear
6:55 PM 49.5 °F - 36.1 °F 60% 30.16 in 10.0 mi NW 3.5 mph - N/A   Clear
7:15 PM 48.0 °F - 36.5 °F 64% 30.16 in 10.0 mi Calm Calm - N/A   Clear
7:35 PM 44.8 °F - 37.8 °F 76% 30.16 in 10.0 mi Calm Calm - N/A   Clear
7:55 PM 42.4 °F - 37.6 °F 83% 30.16 in 10.0 mi Calm Calm - N/A   Clear
8:15 PM 41.4 °F - 37.6 °F 86% 30.16 in 10.0 mi Calm Calm - N/A   Clear
8:35 PM 39.6 °F - 37.2 °F 91% 30.16 in 10.0 mi Calm Calm - N/A   Clear
8:55 PM 39.2 °F - 37.8 °F 95% 30.16 in 10.0 mi Calm Calm - N/A   Clear
9:15 PM 38.7 °F - 37.9 °F 97% 30.16 in 10.0 mi Calm Calm - N/A   Clear
9:35 PM 38.3 °F - 37.6 °F 97% 30.17 in 10.0 mi Calm Calm - N/A   Clear
9:55 PM 37.6 °F - 37.4 °F 99% 30.17 in 10.0 mi Calm Calm - N/A   Clear
10:15 PM 37.4 °F - 36.7 °F 97% 30.17 in 10.0 mi Calm Calm - N/A   Clear
10:35 PM 36.7 °F - 36.7 °F 100% 30.17 in 10.0 mi Calm Calm - N/A   Clear
10:55 PM 36.7 °F - 36.3 °F 99% 30.17 in 10.0 mi Calm Calm - N/A   Clear
11:15 PM 36.1 °F - 36.1 °F 100% 30.17 in 7.0 mi Calm Calm - N/A   Clear
11:35 PM 36.7 °F - 35.2 °F 95% 30.17 in 10.0 mi Calm Calm - N/A   Clear
11:55 PM 38.3 °F 35.9 °F 36.1 °F 92% 30.17 in 10.0 mi West 3.5 mph - N/A   Clear